When you browse on this site, cookies collect data to enhance your experience and personalize the content and advertising you see.
Visit our Privacy Policy to learn more. By continuing to use the site, you agree to this use of cookies and data.

Stündliche Wetter Bolshie Iodkovichi

Heute, 26 September, Samstag

Zeit Temperatur Niederschläge Wind Luftdruck Luftfeuchtigkeit
00:00 +17°C° 0 mm 5 m/S 741 mmHg 77%
01:00 +17°C° 0 mm 5 m/S 741 mmHg 79%
02:00 +17°C° 0 mm 5 m/S 741 mmHg 77%
03:00 +16°C° 0 mm 5 m/S 741 mmHg 78%
04:00 +16°C° 0 mm 5 m/S 740 mmHg 79%
05:00 +16°C° 0 mm 5 m/S 740 mmHg 79%
06:00 +16°C° 0 mm 6 m/S 740 mmHg 78%
07:00 +16°C° 0 mm 6 m/S 740 mmHg 77%
08:00 +17°C° 0 mm 7 m/S 740 mmHg 75%
09:00 +20°C° 0 mm 8 m/S 740 mmHg 69%
10:00 +21°C° 0 mm 8 m/S 740 mmHg 63%
11:00 +23°C° 0 mm 9 m/S 741 mmHg 57%
12:00 +24°C° 0 mm 9 m/S 740 mmHg 54%
13:00 +24°C° 0 mm 9 m/S 740 mmHg 52%
14:00 +26°C° 0 mm 9 m/S 740 mmHg 49%
15:00 +24°C° 0 mm 8 m/S 740 mmHg 53%
16:00 +24°C° 0 mm 7 m/S 740 mmHg 56%
17:00 +23°C° 0 mm 6 m/S 740 mmHg 59%
18:00 +22°C° 0 mm 7 m/S 740 mmHg 60%
19:00 +22°C° 0 mm 7 m/S 740 mmHg 61%
20:00 +21°C° 0 mm 7 m/S 741 mmHg 63%
21:00 +21°C° 0 mm 7 m/S 741 mmHg 61%
22:00 +21°C° 0 mm 7 m/S 741 mmHg 60%
23:00 +20°C° 0 mm 7 m/S 741 mmHg 58%

Morgen, 27 September, Sonntag

Zeit Temperatur Niederschläge Wind Luftdruck Luftfeuchtigkeit
00:00 +20°C° 0 mm 7 m/S 741 mmHg 59%
01:00 +20°C° 0 mm 7 m/S 741 mmHg 59%
02:00 +20°C° 0 mm 7 m/S 741 mmHg 59%
03:00 +18°C° 0 mm 7 m/S 740 mmHg 60%
04:00 +18°C° 0 mm 8 m/S 740 mmHg 61%
05:00 +18°C° 0 mm 8 m/S 740 mmHg 62%
06:00 +18°C° 0 mm 8 m/S 740 mmHg 61%
07:00 +18°C° 0 mm 8 m/S 740 mmHg 60%
08:00 +18°C° 0 mm 8 m/S 741 mmHg 59%
09:00 +18°C° 0.1 mm 8 m/S 741 mmHg 58%
10:00 +18°C° 0.1 mm 9 m/S 741 mmHg 56%
11:00 +18°C° 0.1 mm 9 m/S 741 mmHg 55%
12:00 +18°C° 0.1 mm 9 m/S 741 mmHg 60%
13:00 +17°C° 0.1 mm 9 m/S 741 mmHg 65%
14:00 +17°C° 0.1 mm 9 m/S 741 mmHg 70%
15:00 +17°C° 0.2 mm 8 m/S 742 mmHg 74%
16:00 +16°C° 0.2 mm 8 m/S 742 mmHg 78%
17:00 +16°C° 0.2 mm 7 m/S 743 mmHg 82%
18:00 +14°C° 0.2 mm 6 m/S 744 mmHg 82%
19:00 +13°C° 0.2 mm 6 m/S 744 mmHg 82%
20:00 +10°C° 0.2 mm 5 m/S 745 mmHg 82%
21:00 +10°C° 0 mm 5 m/S 746 mmHg 81%
22:00 +10°C° 0 mm 5 m/S 747 mmHg 80%
23:00 +9°C° 0 mm 5 m/S 748 mmHg 79%

übermorgen, 28 September, Montag

Zeit Temperatur Niederschläge Wind Luftdruck Luftfeuchtigkeit
00:00 +10°C° 0 mm 4 m/S 748 mmHg 82%
01:00 +10°C° 0 mm 3 m/S 749 mmHg 86%
02:00 +9°C° 0 mm 3 m/S 749 mmHg 89%
03:00 +9°C° 0 mm 3 m/S 749 mmHg 91%
04:00 +8°C° 0 mm 3 m/S 750 mmHg 92%
05:00 +8°C° 0 mm 3 m/S 750 mmHg 94%
06:00 +9°C° 0 mm 3 m/S 750 mmHg 90%
07:00 +9°C° 0 mm 3 m/S 751 mmHg 87%
08:00 +10°C° 0 mm 4 m/S 751 mmHg 83%
09:00 +12°C° 0 mm 4 m/S 751 mmHg 75%
10:00 +14°C° 0 mm 4 m/S 752 mmHg 66%
11:00 +17°C° 0 mm 4 m/S 752 mmHg 58%
12:00 +17°C° 0 mm 4 m/S 752 mmHg 55%
13:00 +18°C° 0 mm 4 m/S 752 mmHg 52%
14:00 +19°C° 0 mm 4 m/S 752 mmHg 49%
15:00 +18°C° 0 mm 3 m/S 752 mmHg 52%
16:00 +18°C° 0 mm 3 m/S 751 mmHg 56%
17:00 +17°C° 0 mm 3 m/S 751 mmHg 59%
18:00 +16°C° 0 mm 3 m/S 751 mmHg 62%
19:00 +14°C° 0 mm 3 m/S 751 mmHg 64%
20:00 +13°C° 0 mm 3 m/S 751 mmHg 67%
21:00 +13°C° 0 mm 3 m/S 751 mmHg 68%
22:00 +13°C° 0 mm 3 m/S 751 mmHg 70%
23:00 +12°C° 0 mm 4 m/S 751 mmHg 72%

29 September, Dienstag

Zeit Temperatur Niederschläge Wind Luftdruck Luftfeuchtigkeit
00:00 +12°C° 0 mm 4 m/S 751 mmHg 74%
01:00 +12°C° 0 mm 4 m/S 751 mmHg 77%
02:00 +12°C° 0 mm 4 m/S 750 mmHg 79%
03:00 +12°C° 0 mm 4 m/S 750 mmHg 76%
04:00 +13°C° 0 mm 4 m/S 750 mmHg 73%
05:00 +13°C° 0 mm 4 m/S 750 mmHg 69%
06:00 +13°C° 0 mm 4 m/S 750 mmHg 70%
07:00 +13°C° 0 mm 4 m/S 750 mmHg 70%
08:00 +13°C° 0 mm 4 m/S 750 mmHg 70%
09:00 +14°C° 0 mm 4 m/S 749 mmHg 67%
10:00 +15°C° 0 mm 4 m/S 749 mmHg 65%
11:00 +17°C° 0 mm 4 m/S 749 mmHg 62%
12:00 +18°C° 0 mm 4 m/S 749 mmHg 60%
13:00 +20°C° 0 mm 4 m/S 749 mmHg 57%
14:00 +21°C° 0 mm 4 m/S 749 mmHg 55%
15:00 +20°C° 0.1 mm 3 m/S 749 mmHg 59%
16:00 +19°C° 0.1 mm 2 m/S 749 mmHg 64%
17:00 +19°C° 0.1 mm 1 m/S 749 mmHg 69%
18:00 +18°C° 0.3 mm 1 m/S 749 mmHg 74%
19:00 +16°C° 0.3 mm 1 m/S 749 mmHg 80%
20:00 +16°C° 0.3 mm 1 m/S 749 mmHg 85%
21:00 +15°C° 0.3 mm 1 m/S 749 mmHg 87%
22:00 +15°C° 0.3 mm 1 m/S 749 mmHg 89%
23:00 +15°C° 0.3 mm 1 m/S 749 mmHg 91%

30 September, Mittwoch

Zeit Temperatur Niederschläge Wind Luftdruck Luftfeuchtigkeit
00:00 +15°C° 0 mm 1 m/S 749 mmHg 91%
01:00 +15°C° 0 mm 2 m/S 748 mmHg 91%
02:00 +15°C° 0 mm 2 m/S 748 mmHg 91%
03:00 +15°C° 0 mm 2 m/S 748 mmHg 91%
04:00 +14°C° 0 mm 3 m/S 748 mmHg 92%
05:00 +13°C° 0 mm 3 m/S 748 mmHg 93%
06:00 +13°C° 0.1 mm 3 m/S 748 mmHg 92%
07:00 +13°C° 0.1 mm 3 m/S 747 mmHg 91%
08:00 +13°C° 0.1 mm 3 m/S 747 mmHg 90%
09:00 +13°C° 0 mm 4 m/S 747 mmHg 87%
10:00 +14°C° 0 mm 4 m/S 747 mmHg 85%
11:00 +14°C° 0 mm 4 m/S 747 mmHg 82%
12:00 +14°C° 0 mm 4 m/S 747 mmHg 78%
13:00 +15°C° 0 mm 4 m/S 747 mmHg 74%
14:00 +15°C° 0 mm 4 m/S 747 mmHg 71%
15:00 +15°C° 0 mm 4 m/S 747 mmHg 72%
16:00 +15°C° 0 mm 4 m/S 746 mmHg 73%
17:00 +14°C° 0 mm 3 m/S 746 mmHg 74%
18:00 +14°C° 0 mm 4 m/S 746 mmHg 75%
19:00 +14°C° 0 mm 4 m/S 747 mmHg 76%
20:00 +13°C° 0 mm 4 m/S 747 mmHg 77%
21:00 +13°C° 0 mm 4 m/S 747 mmHg 76%
22:00 +13°C° 0 mm 4 m/S 746 mmHg 75%
23:00 +13°C° 0 mm 4 m/S 746 mmHg 75%

1 Oktober, Donnerstag

Zeit Temperatur Niederschläge Wind Luftdruck Luftfeuchtigkeit
00:00 +13°C° 0 mm 4 m/S 746 mmHg 74%
01:00 +12°C° 0 mm 4 m/S 746 mmHg 73%
02:00 +12°C° 0 mm 4 m/S 745 mmHg 72%
03:00 +12°C° 0 mm 5 m/S 745 mmHg 70%
04:00 +12°C° 0 mm 5 m/S 745 mmHg 67%
05:00 +12°C° 0 mm 5 m/S 745 mmHg 64%
06:00 +12°C° 0 mm 5 m/S 745 mmHg 66%
07:00 +12°C° 0 mm 5 m/S 745 mmHg 68%
08:00 +12°C° 0 mm 5 m/S 745 mmHg 70%
09:00 +12°C° 0.2 mm 5 m/S 744 mmHg 71%
10:00 +12°C° 0.2 mm 5 m/S 744 mmHg 71%
11:00 +12°C° 0.2 mm 4 m/S 744 mmHg 72%
12:00 +13°C° 0 mm 5 m/S 744 mmHg 71%
13:00 +14°C° 0 mm 5 m/S 744 mmHg 71%
14:00 +16°C° 0 mm 5 m/S 743 mmHg 70%
15:00 +15°C° 0.2 mm 5 m/S 743 mmHg 74%
16:00 +14°C° 0.2 mm 5 m/S 743 mmHg 79%
17:00 +13°C° 0.2 mm 5 m/S 743 mmHg 83%
18:00 +13°C° 0.4 mm 5 m/S 743 mmHg 86%
19:00 +13°C° 0.4 mm 5 m/S 743 mmHg 89%
20:00 +13°C° 0.4 mm 6 m/S 743 mmHg 91%
21:00 +13°C° 0.2 mm 6 m/S 743 mmHg 91%
22:00 +13°C° 0.2 mm 6 m/S 743 mmHg 90%
23:00 +13°C° 0.2 mm 6 m/S 743 mmHg 89%
Mehr zeigen